[[{"header":{"parameterUnit":"m.s-1","parameterCategory":1,"la1":30.2992,"la2":30.254,"lo1":-89.0895,"lo2":-89.0443,"dy":0.0025,"dx":0.0025,"nx":19,"ny":19,"refTime":"2026-03-08T03:00:00:Z","depth":0,"parameterNumber":2,"parameterNumberName":"U-component_of_WINDS"},"data":[0,0,0,-0.3753,-0.3752,-0.3674,-0.3674,-0.3587,-0.3586,0,0,0,0,0,0,0,0,0,0,0,-0.3784,-0.3783,-0.3753,-0.3751,-0.3674,-0.3674,-0.3587,-0.3586,0,0,0,0,0,0,0,0,0,0,0,-0.3784,-0.3783,-0.3783,-0.3751,-0.3674,-0.3674,-0.3587,-0.3641,0,0,0,0,0,0,0,0,0,0,-0.3714,-0.375,-0.3783,-0.3783,-0.3751,-0.3675,-0.3674,-0.3643,-0.3638,-0.3627,0,-0.362,0,-0.3602,-0.3581,-0.3581,0,0,0,-0.3745,-0.3755,-0.3727,-0.3783,-0.375,-0.3675,-0.3707,-0.364,-0.3634,-0.3619,-0.3619,-0.3615,-0.36,-0.3581,-0.358,-0.3541,-0.3541,0,0,-0.375,-0.3773,-0.3732,-0.3723,-0.3737,-0.371,-0.3705,-0.3636,-0.3636,-0.3618,-0.3613,-0.3599,-0.358,-0.358,-0.3541,-0.3541,0,0,0,-0.3766,-0.3777,-0.3751,-0.3727,-0.3712,-0.3708,-0.3702,-0.3639,-0.3629,-0.3612,-0.3598,-0.358,-0.3579,-0.3541,-0.3541,-0.3569,0,0,0,-0.3768,-0.3786,-0.3753,-0.3766,-0.3714,-0.3675,-0.3708,-0.3634,-0.3625,-0.3598,-0.358,-0.3578,-0.354,-0.3541,-0.3568,-0.3578,0,0,0,-0.3786,-0.3788,-0.378,-0.3768,-0.3736,-0.3676,-0.3661,-0.3631,-0.3617,-0.3581,-0.3578,-0.354,-0.3541,-0.3567,-0.3576,-0.3575,0,0,0,-0.3811,-0.3805,-0.3781,-0.3768,-0.3737,-0.3694,-0.3661,-0.3628,-0.36,-0.3579,-0.3541,-0.3541,-0.3567,-0.3575,-0.3574,-0.3577,-0.3581,0,0,-0.3816,-0.3806,-0.3797,-0.3773,-0.3741,-0.3704,-0.3676,-0.3627,-0.3602,-0.3563,-0.3561,-0.3568,-0.3576,-0.3575,-0.3595,-0.3599,0,0,0,-0.3807,-0.3801,-0.3787,-0.3762,-0.3726,-0.3696,-0.365,-0.3632,-0.3598,-0.3587,-0.3567,-0.3571,-0.3569,-0.3569,-0.3572,-0.3569,-0.3542,-0.3542,-0.3542,-0.3847,-0.3816,-0.3799,-0.3759,-0.3736,-0.3689,-0.3667,-0.3635,-0.3609,-0.3605,-0.3593,-0.3609,-0.3611,-0.3613,-0.361,-0.3593,-0.3593,-0.3593,-0.3593,-0.3851,-0.3838,-0.3806,-0.3777,-0.3745,-0.372,-0.3675,-0.3659,-0.3631,-0.3616,-0.3612,-0.3598,-0.3618,-0.3613,-0.3595,-0.3594,-0.3594,-0.3594,-0.3594,-0.3874,-0.3862,-0.3842,-0.3804,-0.3778,-0.3737,-0.3713,-0.3684,-0.3656,-0.3653,-0.3637,-0.3636,-0.3632,-0.3647,-0.3647,-0.3647,-0.3648,-0.3648,-0.3648,-0.3905,-0.3881,-0.3865,-0.3827,-0.3808,-0.3779,-0.3733,-0.3713,-0.3684,-0.3664,-0.3664,-0.3639,-0.3626,-0.3623,-0.3648,-0.3648,-0.3648,-0.3648,-0.3648,-0.392,-0.3912,-0.3887,-0.3868,-0.3822,-0.3799,-0.3762,-0.3725,-0.3704,-0.3693,-0.3669,-0.3664,-0.3651,-0.3649,-0.3646,-0.3676,-0.3676,-0.3676,-0.3676,-0.3939,-0.393,-0.3898,-0.387,-0.3839,-0.3804,-0.3776,-0.3741,-0.3703,-0.3688,-0.368,-0.3674,-0.3673,-0.366,-0.3658,-0.3655,-0.3686,-0.3686,-0.3686,-0.3946,-0.3933,-0.3915,-0.3879,-0.3841,-0.381,-0.3782,-0.3751,-0.3706,-0.3686,-0.3676,-0.3675,-0.3666,-0.3664,-0.3642,-0.3639,-0.3633,0,0]},{"header":{"parameterUnit":"m.s-1","parameterCategory":1,"la1":30.2992,"la2":30.254,"lo1":-89.0895,"lo2":-89.0443,"dy":0.0025,"dx":0.0025,"nx":19,"ny":19,"refTime":"2026-03-08T03:00:00:Z","depth":0,"parameterNumber":3,"parameterNumberName":"V-component_of_WINDS"},"data":[0,0,0,2.2924,2.2923,2.2888,2.2888,2.2839,2.2838,0,0,0,0,0,0,0,0,0,0,0,2.2932,2.2932,2.2924,2.2923,2.2888,2.2888,2.2839,2.2838,0,0,0,0,0,0,0,0,0,0,0,2.2932,2.2932,2.2932,2.2923,2.2888,2.2888,2.2839,2.2866,0,0,0,0,0,0,0,0,0,0,2.2901,2.2907,2.2932,2.2932,2.2923,2.2888,2.2888,2.2868,2.2865,2.2853,0,2.2843,0,2.284,2.2835,2.2835,0,0,0,2.2924,2.291,2.2903,2.2931,2.2922,2.2888,2.2904,2.2866,2.2863,2.2849,2.2842,2.284,2.2839,2.2834,2.2834,2.2766,2.2766,0,0,2.2926,2.2925,2.2905,2.29,2.2907,2.2905,2.2903,2.2864,2.2856,2.2842,2.2839,2.2838,2.2834,2.2834,2.2766,2.2766,0,0,0,2.2931,2.2926,2.2919,2.2902,2.2896,2.2904,2.2902,2.2858,2.2856,2.2839,2.2838,2.2834,2.2833,2.2767,2.2766,2.2749,0,0,0,2.2932,2.2929,2.292,2.2919,2.2897,2.2877,2.2896,2.2859,2.2855,2.2838,2.2834,2.2833,2.2767,2.2767,2.275,2.274,0,0,0,2.2935,2.2929,2.2924,2.2919,2.2905,2.2878,2.2874,2.2858,2.2854,2.2834,2.2832,2.2768,2.2767,2.2751,2.2742,2.2722,0,0,0,2.2938,2.2907,2.2924,2.2889,2.2905,2.2868,2.2874,2.2846,2.2827,2.2833,2.2767,2.2766,2.2752,2.2743,2.2723,2.2705,2.2698,0,0,2.2899,2.2903,2.2883,2.2896,2.2856,2.2873,2.283,2.2813,2.2811,2.2781,2.2779,2.275,2.2742,2.2722,2.2657,2.2651,0,0,0,2.287,2.2855,2.2845,2.2828,2.2816,2.2804,2.2794,2.2788,2.2763,2.2796,2.2737,2.2733,2.2721,2.2712,2.2707,2.2697,2.2762,2.2763,2.2763,2.2812,2.2813,2.278,2.2777,2.2761,2.2752,2.2738,2.2728,2.2732,2.2719,2.2709,2.267,2.2659,2.2656,2.2645,2.27,2.27,2.27,2.27,2.2755,2.2734,2.2743,2.2714,2.2715,2.269,2.268,2.2684,2.266,2.2676,2.2666,2.2683,2.2649,2.264,2.2699,2.2699,2.2699,2.2699,2.2699,2.2717,2.2707,2.2702,2.2679,2.266,2.2658,2.2636,2.2637,2.2638,2.2628,2.2618,2.2619,2.2619,2.2623,2.2623,2.2623,2.2623,2.2623,2.2623,2.268,2.2674,2.2656,2.2641,2.2631,2.2618,2.2609,2.2599,2.2588,2.259,2.259,2.2596,2.2646,2.2659,2.2621,2.2621,2.2621,2.2621,2.2622,2.262,2.2634,2.2606,2.2596,2.258,2.2561,2.2564,2.2543,2.2535,2.2524,2.2532,2.2569,2.2572,2.2576,2.2587,2.2532,2.2532,2.2532,2.2532,2.2588,2.2591,2.2563,2.2547,2.2532,2.2532,2.2499,2.2492,2.2487,2.2481,2.249,2.2503,2.2508,2.2508,2.2514,2.2523,2.2454,2.2454,2.2454,2.2552,2.2553,2.2525,2.2522,2.251,2.2498,2.2468,2.2448,2.2445,2.2451,2.2477,2.2481,2.2503,2.251,2.2516,2.2524,2.2542,0,0]}]]